Weather History for Walterboro, SC

Change the Weather History Date:

Friday, November 1, 2013

  Actual Average Record
Temperature  
Mean Temperature 74 °F -  
Max Temperature 82 °F 73 °F 82 °F (2013)
Min Temperature 66 °F 49 °F 37 °F (2012)
Cooling Degree Days 9    
Growing Degree Days 24 (Base 50)    
Moisture  
Dew Point 69 °F    
Average Humidity 78    
Maximum Humidity 100    
Minimum Humidity 62    
Precipitation  
Precipitation 0.00 in - - ()
Sea Level Pressure  
Sea Level Pressure 29.87 in    
Wind  
Wind Speed 7 mph (SSW)    
Max Wind Speed 15 mph    
Max Gust Speed 21 mph    
Visibility 10 miles    
Events Rain    
Averages and records for this station are not official NWS values.
T = Trace of Precipitation, MM = Missing Value Source: NWS Daily Summary

Daily Weather History Graph

Daily Weather History Graph

Search for Another Location

Airport:

Trip Planner

Search our weather history database for the weather conditions in past years. The results will help you decide how hot, cold, wet, or windy it might be!

Date:

Astronomy

Nov. 01, 2013 Rise Set
Actual Time 7:40 AM EDT 6:31 PM EDT
Civil Twilight 7:15 AM EDT 6:56 PM EDT
Nautical Twilight 6:45 AM EDT 7:25 PM EDT
Astronomical Twilight 6:17 AM EDT 7:54 PM EDT
Moon 5:37 AM EDT (11/1) 5:18 PM EDT (11/1)
Length of Visible Light 11h 41m
Length of Day
10h 50m
Waning Crescent, 4% of the Moon is Illuminated
Nov 1
Waning Crescent
Nov 3
New
Nov 10
First Quarter
Nov 17
Full
Nov 25
Last Quarter

Hourly Weather History & Observations

Time (EDT) Temp. Heat Index Dew Point Humidity Pressure Visibility Wind Dir Wind Speed Gust Speed Precip Events Conditions
12:15 AM 68.0 °F - - N/A% 29.99 in 10.0 mi South 3.5 mph - N/A   Clear
12:35 AM 68.0 °F - - N/A% 29.99 in 10.0 mi South 3.5 mph - N/A   Clear
12:55 AM 68.0 °F - - N/A% 29.98 in 10.0 mi SSE 4.6 mph - N/A   Scattered Clouds
1:15 AM 68.0 °F - - N/A% 29.97 in 10.0 mi SSE 4.6 mph - N/A   Mostly Cloudy
1:35 AM 68.0 °F - - N/A% 29.96 in 10.0 mi SSE 8.1 mph - N/A   Mostly Cloudy
1:55 AM 68.0 °F - - N/A% 29.96 in 10.0 mi South 6.9 mph - N/A   Scattered Clouds
2:15 AM 68.0 °F - - N/A% 29.96 in 10.0 mi SSW 6.9 mph - N/A   Clear
2:35 AM 68.0 °F - - N/A% 29.95 in 10.0 mi South 6.9 mph - N/A   Clear
2:55 AM 68.0 °F - - N/A% 29.94 in 10.0 mi SSW 5.8 mph - N/A   Clear
3:15 AM 68.0 °F - - N/A% 29.93 in 10.0 mi South 6.9 mph - N/A   Clear
3:35 AM 68.0 °F - - N/A% 29.92 in 10.0 mi South 6.9 mph - N/A   Clear
3:55 AM 68.0 °F - - N/A% 29.91 in 10.0 mi South 6.9 mph - N/A   Clear
4:15 AM 68.0 °F - - N/A% 29.90 in 10.0 mi South 8.1 mph - N/A   Clear
4:35 AM 68.0 °F - - N/A% 29.90 in 10.0 mi South 8.1 mph - N/A   Clear
4:55 AM 68.0 °F - - N/A% 29.88 in 10.0 mi South 9.2 mph - N/A   Clear
5:15 AM 68.0 °F - - N/A% 29.88 in 10.0 mi South 9.2 mph - N/A   Clear
5:35 AM 68.0 °F - - N/A% 29.88 in 10.0 mi South 8.1 mph - N/A   Clear
5:55 AM 68.0 °F - - N/A% 29.88 in 10.0 mi South 6.9 mph - N/A   Clear
6:15 AM 68.0 °F - - N/A% 29.88 in 10.0 mi SSW 4.6 mph - N/A   Clear
6:35 AM 66.2 °F - - N/A% 29.88 in 10.0 mi South 5.8 mph - N/A   Clear
6:55 AM 68.0 °F - - N/A% 29.88 in 10.0 mi South 6.9 mph - N/A   Clear
7:15 AM 66.2 °F - - N/A% 29.90 in 10.0 mi South 4.6 mph - N/A   Clear
7:55 AM 66.2 °F - - N/A% 29.91 in 10.0 mi SSW 4.6 mph - N/A   Clear
8:15 AM 66.2 °F - - N/A% 29.91 in 10.0 mi South 5.8 mph - N/A   Clear
8:35 AM 68.0 °F - - N/A% 29.91 in 10.0 mi South 5.8 mph - N/A   Scattered Clouds
8:55 AM 69.8 °F - - N/A% 29.91 in 10.0 mi SSW 6.9 mph - N/A   Mostly Cloudy
9:15 AM 69.8 °F - 69.8 °F 100% 29.92 in 10.0 mi SSW 6.9 mph - N/A   Scattered Clouds
9:55 AM 71.6 °F - 71.6 °F 100% 29.92 in 10.0 mi SSW 10.4 mph - N/A   Mostly Cloudy
10:15 AM 71.6 °F - 69.8 °F 94% 29.92 in 10.0 mi SSW 11.5 mph 16.1 mph N/A   Scattered Clouds
10:35 AM 71.6 °F - 69.8 °F 94% 29.91 in 10.0 mi SSW 9.2 mph 17.3 mph N/A   Mostly Cloudy
10:55 AM 73.4 °F - 69.8 °F 88% 29.90 in 10.0 mi SW 12.7 mph - N/A   Mostly Cloudy
11:15 AM 75.2 °F - 68.0 °F 78% 29.90 in 10.0 mi SSW 13.8 mph 18.4 mph N/A   Overcast
11:35 AM 75.2 °F - 66.2 °F 73% 29.89 in 10.0 mi SW 11.5 mph - N/A   Mostly Cloudy
11:55 AM 75.2 °F - 66.2 °F 73% 29.88 in 10.0 mi SW 13.8 mph - N/A   Scattered Clouds
12:15 PM 77.0 °F - 66.2 °F 69% 29.87 in 10.0 mi SSW 10.4 mph - N/A   Scattered Clouds
12:35 PM 78.8 °F - 68.0 °F 69% 29.87 in 10.0 mi SW 15.0 mph 20.7 mph N/A   Scattered Clouds
12:55 PM 80.6 °F 83.2 °F 68.0 °F 65% 29.85 in 10.0 mi SSW 13.8 mph 18.4 mph N/A   Scattered Clouds
1:15 PM 80.6 °F 83.2 °F 68.0 °F 65% 29.83 in 10.0 mi SW 15.0 mph 19.6 mph N/A   Clear
1:35 PM 80.6 °F 83.2 °F 68.0 °F 65% 29.82 in 10.0 mi SW 13.8 mph - N/A   Clear
1:55 PM 80.6 °F 83.2 °F 68.0 °F 65% 29.82 in 10.0 mi SW 10.4 mph 19.6 mph N/A   Clear
2:15 PM 80.6 °F 83.2 °F 68.0 °F 65% 29.81 in 10.0 mi SSW 10.4 mph - N/A   Clear
2:35 PM 80.6 °F 83.2 °F 68.0 °F 65% 29.80 in 10.0 mi SSW 9.2 mph 17.3 mph N/A   Scattered Clouds
2:55 PM 82.4 °F 85.4 °F 68.0 °F 62% 29.78 in 10.0 mi SSW 13.8 mph 20.7 mph N/A   Scattered Clouds
3:15 PM 80.6 °F 83.2 °F 68.0 °F 65% 29.78 in 10.0 mi SSW 11.5 mph - N/A   Clear
3:35 PM 78.8 °F - 68.0 °F 69% 29.78 in 10.0 mi South 11.5 mph - N/A   Scattered Clouds
3:55 PM 78.8 °F - 68.0 °F 69% 29.78 in 10.0 mi SSW 9.2 mph - N/A   Scattered Clouds
6:15 PM 75.2 °F - 69.8 °F 83% 29.76 in 10.0 mi South 9.2 mph 16.1 mph N/A   Mostly Cloudy
6:35 PM 73.4 °F - 69.8 °F 88% 29.76 in 10.0 mi South 12.7 mph - N/A   Mostly Cloudy
6:55 PM 73.4 °F - 69.8 °F 88% 29.76 in 10.0 mi South 11.5 mph - N/A   Overcast
7:15 PM 73.4 °F - 71.6 °F 94% 29.76 in 10.0 mi South 8.1 mph - N/A   Overcast
7:35 PM 71.6 °F - 71.6 °F 100% 29.79 in 7.0 mi West 8.1 mph - N/A Rain Light Rain
7:55 PM 69.8 °F - - N/A% 29.80 in 7.0 mi West 6.9 mph - N/A Rain Light Rain
8:35 PM 69.8 °F - - N/A% 29.81 in 7.0 mi WSW 3.5 mph - N/A Rain Heavy Rain
9:35 PM 68.0 °F - - N/A% 29.79 in 10.0 mi Calm Calm - N/A Rain Rain
9:55 PM 68.0 °F - - N/A% 29.80 in 4.0 mi Calm Calm - N/A Rain Heavy Rain
10:55 PM 68.0 °F - - N/A% 29.79 in 10.0 mi Calm Calm - N/A Rain Light Rain
11:15 PM 68.0 °F - - N/A% 29.80 in 7.0 mi South 6.9 mph - N/A Rain Rain
11:35 PM 66.2 °F - - N/A% 29.79 in 3.0 mi SW 3.5 mph - N/A Rain Heavy Rain
11:55 PM 66.2 °F - - N/A% 29.78 in 10.0 mi SSW 4.6 mph - N/A Rain Light Rain